Regional Weather Roundup
Issued by NWS

Home | Current Version | Previous Version | Graphics & Text | Print | Product List | Glossary On
Versions: 1 2 3 4 5 6 7 8 9 10 11 12 13 14 15 16 17 18 19 20 21 22 23 24 25 26 27 28 29 30 31 32 33 34 35 36 37 38 39 40 41 42 43 44 45 46 47 48 49 50
000
ASUS43 KOAX 211402
RWRNE

WEATHER ROUNDUP FOR NEBRASKA
NATIONAL WEATHER SERVICE OMAHA NE
800 AM CST TUE NOV 21 2017

NOTES: SATELLITE DATA IS BEING USED TO AUGMENT CLOUD COVER ABOVE
       12000 FEET.
       "FAIR" INDICATES FEW OR NO CLOUDS BELOW 12,000 FEET WITH NO
       SIGNIFICANT WEATHER AND/OR OBSTRUCTIONS TO VISIBILITY.


NEZ001>004-019>022-054>056-211500-
NEBRASKA PANHANDLE

CITY           SKY/WX    TMP DP  RH WIND       PRES   REMARKS
SCOTTSBLUFF    CLOUDY    31  23  72 N9        30.25R WCI  23
ALLIANCE       CLOUDY    29  26  89 N13       30.20R WCI  19
CHADRON        CLOUDY    29  28  96 W5        30.25R WCI  24
GORDON         CLOUDY    28  24  82 N18       30.20R WCI  15
KIMBALL        CLOUDY    33  26  72 NE12      30.21R WCI  25
SIDNEY         CLOUDY    32  25  75 N14       30.22R WCI  22
$$

NEZ057>060-069>072-079>082-211500-
SOUTHWEST NEBRASKA

CITY           SKY/WX    TMP DP  RH WIND       PRES   REMARKS
NORTH PLATTE   MOCLDY    33  27  78 NW7       30.18R WCI  27
IMPERIAL       CLOUDY    36  23  59 N14       30.20R WCI  27
LEXINGTON      CLEAR     34  28  78 NW9       30.14R WCI  26
MCCOOK         PTCLDY    37  26  64 N20       30.13R WCI  27
OGALLALA       CLOUDY    35  27  74 N16G22    30.21R WCI  25
$$

NEZ005>010-023>029-035>040-094-211500-
NORTH CENTRAL NEBRASKA

CITY           SKY/WX    TMP DP  RH WIND       PRES   REMARKS
VALENTINE      CLOUDY    26  17  68 N15G24    30.22R WCI  14
AINSWORTH      PTCLDY    25  17  71 N20       30.19R WCI  10
BROKEN BOW     MOCLDY    34  25  69 N24G35    30.13R WCI  21
O`NEILL        PTCLDY    24  15  70 NW23G33   30.18R WCI   8
ORD            CLOUDY    35  27  72 N26G37    30.13R WCI  22
THEDFORD       CLOUDY    32  25  75 N14G22    30.19R WCI  22
$$

NEZ041-046>049-061>064-073>077-083>087-211500-
SOUTH CENTRAL NEBRASKA

CITY           SKY/WX    TMP DP  RH WIND       PRES   REMARKS
GRAND ISLAND   CLEAR     34  28  79 N16       30.11R WCI  24
AURORA         CLOUDY    36  27  69 N18G24    30.08R WCI  25
HASTINGS       CLOUDY    35  27  72 N18G29    30.10R WCI  24
HEBRON         CLOUDY    41  28  58 N13G18    30.07R
HOLDREGE       CLEAR     35  29  79 N15G23    30.11R WCI  25
KEARNEY        CLEAR     35  28  75 N17G26    30.12R WCI  25
YORK           CLOUDY    36  30  80 N9        30.08R WCI  29
$$

NEZ011>018-030>034-042>045-211500-
NORTHEAST NEBRASKA

CITY           SKY/WX    TMP DP  RH WIND       PRES   REMARKS
NORFOLK        CLOUDY    32   9  38 NW30G39   30.08R WCI  18
ALBION         CLOUDY    35  28  76 N25G32    30.10R WCI  23
BLAIR          CLOUDY    39  28  63 NW17G23   30.01R WCI  30
COLUMBUS       MOCLDY    36  27  69 NW18G26   30.08R WCI  26
FREMONT        CLOUDY    39  29  66 NW21G30   30.06R WCI  29
TEKAMAH        CLOUDY    38  17  42 NW20G35   30.04R WCI  28
WAYNE          PTCLDY    27   9  46 N22G36    30.10R WCI  13
$$

NEZ050>053-065>068-078-088>093-211500-
SOUTHEAST NEBRASKA

CITY           SKY/WX    TMP DP  RH WIND       PRES   REMARKS
LINCOLN        CLOUDY    41  28  60 N20G26    30.06R
OMAHA EPPLEY   CLOUDY    38  28  67 NW8       30.02R WCI  32
BEATRICE       CLOUDY    41  29  61 N20G29    30.02R
FALLS CITY     CLOUDY    44  26  49 N15       29.98R
NEBRASKA CITY  CLOUDY    40  29  63 N18G25    30.00R WCI  31
PLATTSMOUTH    CLOUDY    40  27  60 NW15G22   30.00R WCI  31
$$

NEZ044-045-051>053-067-211500-
OMAHA AREA

CITY           SKY/WX    TMP DP  RH WIND       PRES   REMARKS
OMAHA EPPLEY   CLOUDY    38  28  67 NW8       30.02R WCI  32
BLAIR          CLOUDY    39  28  63 NW17G23   30.01R WCI  30
FREMONT        CLOUDY    39  29  66 NW21G30   30.06R WCI  29
MILLARD        CLOUDY    41  28  59 NW9       30.03R
OFFUTT AFB     CLOUDY    41  23  48 NW15G21   30.01R
PLATTSMOUTH    CLOUDY    40  27  60 NW15G22   30.00R WCI  31
WAHOO          CLOUDY    39  29  65 N23G30    30.04R WCI  29
$$




USA.gov is the U.S. government's official web portal to all federal, state and local government web resources and services.